Location: Home
(42.5358°N, 72.7383°W)
Time: 21:37:12
(UTC-05:00)

Vanguard 1 Rocket - Pass Details

Date: 02 December 2021
Orbit: 651 x 4225 km, 34.3° (Epoch: 26 January)

Event Time Altitude Azimuth Distance (km) Brightness Sun altitude
Exits shadow 03:22:23 52° 200° (SSW) 2,912 9.6 -39.8°
Maximum altitude 03:25:29 59° 162° (SSE) 3,028 9.8 -39.2°
Drops below altitude 10° 03:47:05 10° 91° (E) 7,142 12.7 -35.3°
Sets 03:53:24 0° 89° (E) 8,390 13.4 -34.1°
